Weather History for Kenai, AK

Change the Weather History Date:

Sunday, February 17, 2013

  Actual Average Record
Temperature  
Mean Temperature 20 °F -  
Max Temperature 27 °F 25 °F 39 °F (1970)
Min Temperature 12 °F 6 °F -31 °F (1954)
Degree Days  
Heating Degree Days 44    
Moisture  
Dew Point 20 °F    
Average Humidity 90    
Maximum Humidity 93    
Minimum Humidity 68    
Precipitation  
Precipitation 0.01 in - - ()
Sea Level Pressure  
Sea Level Pressure 29.63 in    
Wind  
Wind Speed 19 mph (NNE)    
Max Wind Speed 25 mph    
Max Gust Speed 32 mph    
Visibility 3 miles    
Events Fog , Snow    
Averages and records for this station are not official NWS values.
T = Trace of Precipitation, MM = Missing Value Source: NWS Daily Summary

Daily Weather History Graph

Daily Weather History Graph

Search for Another Location

Airport:

Trip Planner

Search our weather history database for the weather conditions in past years. The results will help you decide how hot, cold, wet, or windy it might be!

Date:

Astronomy

Feb. 17, 2013 Rise Set
Actual Time 8:38 AM AKST 6:00 PM AKST
Civil Twilight 7:53 AM AKST 6:45 PM AKST
Nautical Twilight 7:04 AM AKST 7:34 PM AKST
Astronomical Twilight 6:15 AM AKST 8:23 PM AKST
Moon 10:28 AM AKST (2/17) 3:12 AM AKST (2/17)
Length of Visible Light 10h 51m
Length of Day
9h 22m
Waxing Crescent, 50% of the Moon is Illuminated
Feb 17
Waxing Crescent
Feb 25
Full
Mar 4
Last Quarter
Mar 11
New
Mar 19
First Quarter

Hourly Weather History & Observations

Time (AKST) Temp. Windchill Dew Point Humidity Pressure Visibility Wind Dir Wind Speed Gust Speed Precip Events Conditions
12:01 AM 19.4 °F 1.8 °F 17.6 °F 93% 29.74 in 0.8 mi North 25.3 mph 32.2 mph 0.00 in Snow Light Snow
12:53 AM 19.9 °F 2.8 °F 17.1 °F 89% 29.73 in 0.5 mi North 24.2 mph 29.9 mph 0.00 in Fog , Snow Light Snow
1:53 AM 19.9 °F 3.2 °F 18.0 °F 92% 29.71 in 0.8 mi NNE 23.0 mph - 0.00 in Snow Light Snow
2:11 AM 19.4 °F 1.8 °F 17.6 °F 93% 29.69 in 1.0 mi NNE 25.3 mph - 0.00 in Snow Light Snow
3:53 AM 21.0 °F 4.6 °F 19.0 °F 92% 29.67 in 1.5 mi NNE 23.0 mph - 0.00 in Snow Light Snow
4:13 AM 21.2 °F 5.6 °F 19.4 °F 93% 29.65 in 2.0 mi NNE 20.7 mph - 0.00 in Snow Light Snow
4:30 AM 21.2 °F 4.9 °F 19.4 °F 93% 29.64 in 1.5 mi NNE 23.0 mph - 0.00 in Snow Light Snow
4:50 AM 21.2 °F 5.6 °F 19.4 °F 93% 29.64 in 1.8 mi NNE 20.7 mph - 0.00 in Snow Light Snow
4:53 AM 21.9 °F 5.8 °F 19.0 °F 89% 29.65 in 1.8 mi NNE 23.0 mph - 0.00 in Snow Light Snow
5:03 AM 21.2 °F 5.2 °F 19.4 °F 93% 29.64 in 2.0 mi NNE 21.9 mph - 0.00 in Snow Light Snow
5:50 AM 21.2 °F 4.5 °F 19.4 °F 93% 29.62 in 1.5 mi NNE 24.2 mph - 0.00 in Snow Light Snow
5:53 AM 21.9 °F 6.5 °F 19.0 °F 89% 29.64 in 1.8 mi NNE 20.7 mph - 0.00 in Snow Light Snow
6:05 AM 21.2 °F 4.9 °F 19.4 °F 93% 29.62 in 1.5 mi NNE 23.0 mph - 0.00 in Snow Light Snow
6:14 AM 21.2 °F 4.9 °F 19.4 °F 93% 29.62 in 2.0 mi NNE 23.0 mph - 0.00 in Snow Light Snow
6:41 AM 21.2 °F 5.6 °F 19.4 °F 93% 29.62 in 3.0 mi NNE 20.7 mph - 0.00 in Snow Light Snow
6:53 AM 21.9 °F 6.5 °F 19.9 °F 92% 29.62 in 2.5 mi NNE 20.7 mph - 0.00 in Snow Light Snow
7:11 AM 21.2 °F 5.6 °F 19.4 °F 93% 29.61 in 3.0 mi NNE 20.7 mph - 0.00 in Snow Light Snow
7:53 AM 21.9 °F 6.5 °F 19.9 °F 92% 29.61 in 3.0 mi NNE 20.7 mph - 0.00 in Snow Light Snow
8:16 AM 21.2 °F 6.0 °F 19.4 °F 93% 29.59 in 2.5 mi NNE 19.6 mph - 0.00 in Snow Light Snow
8:28 AM 21.2 °F 6.8 °F 19.4 °F 93% 29.59 in 2.0 mi NNE 17.3 mph - 0.00 in Snow Light Snow
8:44 AM 23.0 °F 8.3 °F 21.2 °F 93% 29.59 in 3.0 mi NNE 19.6 mph - 0.00 in Snow Light Snow
8:53 AM 23.0 °F 8.7 °F 21.0 °F 92% 29.60 in 3.0 mi NNE 18.4 mph - 0.00 in Snow Light Snow
9:09 AM 23.0 °F 8.0 °F 21.2 °F 93% 29.59 in 3.0 mi NNE 20.7 mph - 0.00 in Snow Light Snow
9:53 AM 23.0 °F 8.7 °F 21.0 °F 92% 29.59 in 3.0 mi NNE 18.4 mph - 0.00 in Snow Light Snow
9:56 AM 23.0 °F 9.2 °F 21.2 °F 93% 29.58 in 2.5 mi NNE 17.3 mph - 0.00 in Snow Light Snow
10:10 AM 23.0 °F 9.6 °F 21.2 °F 93% 29.58 in 1.8 mi NNE 16.1 mph - 0.00 in Snow Light Snow
10:17 AM 23.0 °F 10.1 °F 21.2 °F 93% 29.58 in 3.0 mi NNE 15.0 mph - 0.00 in Snow Light Snow
10:53 AM 24.1 °F 12.5 °F 21.0 °F 88% 29.60 in 3.0 mi NNE 12.7 mph - 0.00 in Snow Light Snow
11:06 AM 24.8 °F 11.9 °F 21.2 °F 86% 29.59 in 1.8 mi NNE 16.1 mph - 0.00 in Snow Light Snow
11:40 AM 24.8 °F 11.9 °F 21.2 °F 86% 29.59 in 0.8 mi NNE 16.1 mph - 0.00 in Snow Light Snow
11:53 AM 24.1 °F 11.5 °F 21.9 °F 91% 29.60 in 1.0 mi NNE 15.0 mph - 0.00 in Snow Light Snow
12:53 PM 25.0 °F 13.6 °F 23.0 °F 92% 29.60 in 1.0 mi NNE 12.7 mph - 0.00 in Snow Light Snow
12:56 PM 24.8 °F 14.0 °F 23.0 °F 93% 29.59 in 0.8 mi North 11.5 mph - 0.00 in Snow Light Snow
1:11 PM 24.8 °F 13.4 °F 23.0 °F 93% 29.59 in 1.0 mi NNE 12.7 mph - 0.00 in Snow Light Snow
1:53 PM 25.0 °F 13.6 °F 23.0 °F 92% 29.60 in 2.0 mi NNE 12.7 mph - 0.01 in Snow Light Snow
2:07 PM 26.6 °F 16.8 °F 23.0 °F 86% 29.59 in 1.5 mi NNE 10.4 mph - 0.00 in Snow Light Snow
2:30 PM 26.6 °F 16.8 °F 23.0 °F 86% 29.59 in 1.8 mi NNE 10.4 mph - 0.00 in Snow Light Snow
2:40 PM 26.6 °F 15.7 °F 23.0 °F 86% 29.59 in 2.5 mi North 12.7 mph - 0.00 in Snow Light Snow
2:48 PM 26.6 °F 15.2 °F 23.0 °F 86% 29.59 in 3.0 mi North 13.8 mph - 0.00 in Snow Light Snow
2:53 PM 26.1 °F 15.6 °F 23.0 °F 88% 29.60 in 2.5 mi North 11.5 mph - 0.00 in Snow Light Snow
3:13 PM 26.6 °F 16.2 °F 23.0 °F 86% 29.59 in 2.0 mi North 11.5 mph - 0.00 in Snow Light Snow
3:53 PM 27.0 °F 18.7 °F 24.1 °F 89% 29.61 in 2.0 mi North 8.1 mph - 0.00 in Snow Light Snow
4:53 PM 27.0 °F 17.3 °F 24.1 °F 89% 29.62 in 2.0 mi North 10.4 mph - 0.00 in Snow Light Snow
5:31 PM 26.6 °F 16.2 °F 24.8 °F 93% 29.62 in 2.5 mi North 11.5 mph - 0.00 in Snow Light Snow
5:53 PM 27.0 °F 17.3 °F 24.1 °F 89% 29.64 in 2.0 mi North 10.4 mph - 0.00 in Snow Light Snow
6:33 PM 26.6 °F 20.0 °F 24.8 °F 93% 29.64 in 2.0 mi North 5.8 mph - 0.00 in Snow Light Snow
6:53 PM 26.1 °F 21.9 °F 24.1 °F 92% 29.66 in 3.0 mi NNW 3.5 mph - 0.00 in Snow Light Snow
7:53 PM 26.1 °F - 21.0 °F 81% 29.68 in 10.0 mi Calm Calm - 0.00 in   Overcast
8:53 PM 21.9 °F 12.5 °F 12.9 °F 68% 29.70 in 10.0 mi NW 8.1 mph - N/A   Scattered Clouds
9:53 PM 19.9 °F 11.1 °F 12.0 °F 71% 29.73 in 10.0 mi NW 6.9 mph - N/A   Clear
10:53 PM 14.0 °F - 10.0 °F 84% 29.76 in 10.0 mi Calm Calm - N/A   Partly Cloudy
11:53 PM 12.9 °F 6.9 °F 9.0 °F 84% 29.79 in 10.0 mi NE 3.5 mph - N/A   Clear